Regional Weather Roundup
Issued by NWS Wakefield, VA

Home | Current Version | Previous Version | Graphics & Text | Print | Product List | Glossary On
Versions: 1 2 3 4 5 6 7 8 9 10 11 12 13 14 15 16 17 18 19 20 21 22 23 24 25 26 27 28 29 30 31 32 33 34 35 36 37 38 39 40 41 42 43 44 45 46 47 48 49 50
055
ASUS41 KAKQ 221315
RWRAKQ

REGIONAL WEATHER ROUNDUP
NATIONAL WEATHER SERVICE WAKEFIELD VA
900 AM EDT SUN APR 22 2018

Note: "fair" indicates few or no clouds below 12,000 feet with no
significant weather and/or obstructions to visibility. * = Denotes
station may not report precipitation (e.g., rain,snow,etc.),
thunder or fog.

VAZ042-051-052>054-056-221400-
NORTHERN VIRGINIA

CITY           SKY/WX    TMP DP  RH WIND       PRES   REMARKS
WASH NATIONAL  PTSUNNY   54  41  61 CALM      30.42S
DULLES         PTSUNNY   52  42  69 E5        30.40S
FORT BELVOIR   PTSUNNY   52  41  66 CALM      30.41S
QUANTICO       FAIR      52  45  77 S8        30.42R
FREDERICKSBRG* FAIR      53  44  70 S5        30.39F
STAFFORD*      FAIR      53  44  72 CALM      30.44S
WARRENTON      FAIR      52  39  61 CALM      30.39S
CULPEPER*      FAIR      51  40  68 CALM      30.40S
MANASSAS*      FAIR      52  42  69 CALM      30.41R
LEESBURG*      FAIR      52  43  71 CALM      30.41S
WINCHESTER     FAIR      50  32  50 NE3       30.38S
FRONT ROYAL*   FAIR      50  34  53 N5        30.36S
LURAY*         FAIR      48  37  66 CALM      30.36S
$$

VAZ048-049-060>072-079>083-221400-
CENTRAL AND SOUTH CENTRAL VIRGINIA

CITY           SKY/WX    TMP DP  RH WIND       PRES   REMARKS
RICHMOND       FAIR      53  42  66 S9        30.40S
CHESTERFIELD*  FAIR      53  42  66 S9        30.40S
PETERSBURG*    FAIR      52  40  62 S6        30.41R
HANOVER        FAIR      53  43  68 S7        30.41S
TAPPAHANNOCK*  FAIR      54  41  61 SE5       30.42R
QUINTON*       FAIR      52  38  58 SE5       30.41R
CHARLOTTSVILLE FAIR      53  39  59 CALM      30.38R
GORDONSVILLE*  FAIR      51  44  76 CALM      30.38S
ORANGE*        FAIR      50  43  76 CALM      30.39R
LOUISA*        FAIR      53  43  67 SW3       30.42S
BUMPASS*       FAIR      52  43  69 S8        30.39S
FARMVILLE*     FAIR      54  52  90 S5        30.37S
CREWE*         FAIR      54  46  75 SE6       30.39S
FORT PICKETT*  FAIR      53  44  72 S8        30.39S
CHASE CITY*    FAIR      55  43  64 S5        30.39R
CLARKSVILLE*   FAIR      52  43  71 S5        30.38R
SOUTH HILL*    FAIR      52  46  80 S5        30.45R
LAWRENCEVILLE* FAIR      52  43  73 S5        30.39S
EMPORIA*       FAIR      52  41  66 SE6       30.42R
$$

VAZ088>098-221400-
SOUTHEAST VIRGINIA

CITY           SKY/WX    TMP DP  RH WIND       PRES   REMARKS
NORFOLK        FAIR      56  34  43 SW3       30.40F
VIRGINIA BEACH FAIR      56  36  47 SE5       30.40S
NORFOLK NAVAL  FAIR      56  32  40 VRB3      30.42S
WEST POINT*    FAIR      53  40  60 SE8       30.43R
SALUDA*        FAIR      55  37  51 S5        30.42R
NEWPORT NEWS   FAIR      56  38  50 S5        30.42R
LANGLEY AFB    FAIR      56  38  51 SW5       30.41S
FORT EUSTIS    FAIR      56  40  55 S6        30.39S
WILLIAMSBURG*  FAIR      55  39  54 CALM      30.43R
HR EXEC AP*    NOT AVBL
FRANKLIN*      FAIR      54  37  52 SE6       30.42R
US460-WAKEFLD  FAIR      54  40  59 SE6       30.41R HAZE
$$

VAZ020-022-025-037-045-221400-
WEST CENTRAL AND SOUTHWEST VIRGINIA

CITY           SKY/WX    TMP DP  RH WIND       PRES   REMARKS
STAUNTON*      FAIR      47  36  63 CALM      30.37S
WAYNESBORO*    FAIR      51  34  52 CALM      30.35R
HOT SPRINGS VA PTSUNNY   51  27  39 S6        30.33S
LYNCHBURG      FAIR      52  39  61 S5        30.37R
DANVILLE       FAIR      52  43  71 SW5       30.38R
SOUTH BOSTON*  FAIR      53  41  64 CALM      30.39R
MARTINSVILLE   FAIR      50  40  68 CALM      30.39S
ROANOKE        FAIR      52  36  54 CALM      30.37S
BLACKSBURG     FAIR      53  35  49 E6        30.37S
DUBLIN*        FAIR      52  37  56 CALM      30.35S
MARION*        FAIR      50  37  61 NE6       30.35S
HILLSVILLE*    FAIR      53  37  55 SW6       30.33R
RICHLANDS*     FAIR      56  -6   8 CALM      30.30F
WISE*          FAIR      55  34  44 S8        30.31S
ABINGDON*      FAIR      53  39  57 E5        30.31R
$$

MDZ021>025-VAZ099-100-221400-
SOUTHERN MARYLAND AND THE DELMARVA PENINSULA

CITY           SKY/WX    TMP DP  RH WIND       PRES   REMARKS
PATUXENT RIVER PTSUNNY   57  41  55 SW3       30.42R
BAY BRIDGE APT FAIR      54  41  62 S3        30.43R
LEONARDTOWN    FAIR      54  39  58 CALM      30.43R
DOVER          MOSUNNY   53  29  41 NE10      30.43R
GEORGETOWN     FAIR      56  40  55 CALM      30.43S
EASTON         MOSUNNY   54  41  62 E6        30.46S
CAMBRIDGE      SUNNY     52  43  71 CALM      30.43S
SALISBURY      FAIR      52  45  77 NE7       30.42F
TANGIER        FAIR      54  45  71 S5        30.42R
OCEAN CITY     FAIR      53  46  77 N5        30.43F
WALLOPS ISLAND FAIR      57  38  48 W3        30.42F
ACCOMACK*      FAIR      56  43  61 SW3       30.42S
$$

NCZ012>017-030>032-221400-
NORTH CENTRAL AND EASTERN NORTH CAROLINA

CITY           SKY/WX    TMP DP  RH WIND       PRES   REMARKS
ROANOKE RAPIDS FAIR      52  43  71 CALM      30.40R
RALEIGH        PTSUNNY   54  44  69 SE5       30.39R
ELIZABETH CITY FAIR      57  41  55 E6        30.41S
AHOSKIE*       FAIR      52  43  72 SE6       30.41R
EDENTON*       FAIR      59  42  54 E7        30.42R
CURRITUCK*     NOT AVBL
KILL DEVIL HLS FAIR      53  40  62 CALM      30.41R
MANTEO         FAIR      55  34  45 E6        30.42S
CAPE HATTERAS  FAIR      59  38  45 N5        30.40S
TARBORO*       NOT AVBL
GOLDSBORO      FAIR      56  48  73 E6        30.37R
WASHINGTON     FAIR      56  44  64 E5        30.41R
GREENVILLE     FAIR      54  43  66 E3        30.40R HAZE
NEW BERN       FAIR      57  48  72 E7        30.40R
WILMINGTON     FAIR      63  50  62 E10       30.36R
$$

VAZ048-221400-
ELSEWHERE

CITY           SKY/WX    TMP DP  RH WIND       PRES   REMARKS
HARRISBURG PA  FAIR      50  31  48 CALM      30.44R
BALTIMORE      PTSUNNY   54  41  61 E6        30.42R
ANNAPOLIS      FAIR      55  44  66 S5        30.42S
ANDREWS AFB    FAIR      51  40  66 E3        30.41R
PHILADELPHIA   FAIR      53  24  32 E8        30.44S
HENDERSON NC   FAIR      51  41  68 S5        30.38S
GREENSBORO     PTSUNNY   54  45  71 S6        30.36R
ROCKY MOUNT    FAIR      54  46  74 VRB5      30.39R
$$

VAZ100-221400-
MARINE

STATION/POSITION TIME  TEMP    WIND        PRES    WAVE   SWELL
                       AIR SEA DIR/SP/G            HT/PER HT/PER
                 (UTC) (F)     (DEG/KT/KT) (MB)    (FT/S) (FT/S)
BRANDYWINE LGT   1242   50      60/ 12/ 12 1030.8R
CAPE MAY NJ      1242   53 49   50/  3/  6 1030.0R
LEWES DE         1242   51 49   10/  2/  3 1030.4S
15NM E FENWICK I 1250   46 46  290/  4/  6 1030.9R   1/13
OCEAN-CITY-INLET 1242   50 50   20/  3/  5 1030.8F
WACHAPREAGUE VA  1242   55 56  220/  4/  5 1030.1S
THOMAS POINT MD  1300   51 50   90/  3/  4 1031.4R
GOOSES REEF MD   1300   52     100/  4/  4 1030.9
COVE POINT MD    1242   50      60/  5/  6 1030.9R
SOLOMONS ISLAND  1242   51 52   60/  2/  3 1029.8R
BISHOPS HEAD MD  1242   53 54  260/  2/  3 1030.4R
PINEY POINT MD   1242          150/  2/  3   N/A
POTOMAC MD       1300   52 53  120/  2/  4 1031.2    1
CAMBRIDGE MD     1242   52 53              1031.2R
LEWISETTA VA     1242   53 55  150/  1/  3 1029.9R
RAPPAHANNOCK LGT 1242          180/  4/  5 1030.5F
YORK RVR RNG VA  1242   53     230/  4/  5 1030.4S
YORKTOWN VA      1242   54 56  170/  3/  4 1029.4F
DOMINION TERM VA 1242   52     140/  4/  4 1030.0S
KIPTOPEKE VA     1242      53  170/  3/  4   N/A
CAPE HENRY VA    1242   53     130/  7/  9   N/A
WILLOUBY STN VA  1242   56     200/  2/  2 1029.8S
S CRANEY ISL VA  1242   54     170/  4/  5 1029.6F
CAPE HENRY BUOY  1300      51                N/A     1/14
64NM E OF VA BCH 1250   49 49  350/  6/  8 1030.7R   1/ 5   2/ 5
DUCK PIER NC     1242   52 52   70/  6/  7 1029.5R
44100 DUCK FRF   1245      50                N/A     2/ 8
44056 DUCK FRF   1300      52                N/A     2/17
OREGON INLET NC  1242   52 54   20/  6/  7 1029.9R
HATTERAS NC      1242   57 61   40/  5/  6 1029.2R
DIAMOND SHLS NC  1300   60 74   10/ 10/ 16 1029.5
CAPE LOOKOUT NC  1300           70/ 12/ 14 1029.0R
$$




USA.gov is the U.S. government's official web portal to all federal, state and local government web resources and services.